Date,TemperatureHighF,TemperatureAvgF,TemperatureLowF,DewpointHighF,DewpointAvgF,DewpointLowF,HumidityHigh,HumidityAvg,HumidityLow,PressureMaxIn,PressureMinIn,WindSpeedMaxMPH,WindSpeedAvgMPH,GustSpeedMaxMPH,PrecipitationSumIn
2013-1-1,23.4,16.5,9.2,14.6,10.0,5.9,87,75,60,30.33,30.17,8,1,8,0.00
2013-1-2,32.5,20.9,8.5,23.5,14.7,5.4,88,77,64,30.27,30.12,12,2,12,0.01
2013-1-3,31.4,25.8,13.5,26.9,20.4,9.3,89,80,63,30.38,30.16,13,1,13,0.00
2013-1-4,35.4,24.2,12.0,27.3,19.0,8.4,87,81,71,30.36,30.26,11,2,11,0.00
2013-1-5,37.4,31.4,22.7,34.4,28.0,19.4,92,87,80,30.27,30.00,12,2,12,0.01
2013-1-6,35.5,25.2,18.1,30.6,20.3,15.6,91,82,67,30.36,30.01,13,1,13,0.00
2013-1-7,41.0,31.4,20.8,29.8,24.7,17.3,87,77,60,30.35,30.11,14,3,15,0.01
2013-1-8,46.0,37.7,30.8,34.0,30.1,25.8,84,74,60,30.14,30.02,12,3,12,0.00
2013-1-9,48.9,37.5,27.1,36.7,31.1,25.1,94,79,57,30.50,30.07,9,1,10,0.00
2013-1-10,43.8,36.9,27.0,42.7,31.9,25.0,96,83,58,30.48,29.79,15,2,15,0.54
2013-1-11,55.5,50.2,44.0,51.0,47.3,42.7,97,90,79,29.81,29.64,14,3,14,0.18
2013-1-12,53.5,37.7,22.7,48.0,32.5,19.9,91,81,71,30.02,29.67,13,2,13,0.00
2013-1-13,22.9,18.1,9.3,20.1,12.7,6.2,89,80,68,30.33,29.94,10,1,11,0.00
2013-1-14,28.0,15.4,7.7,15.8,9.8,4.7,90,79,56,30.53,30.32,6,0,7,0.00
2013-1-15,29.7,17.9,8.4,17.6,11.9,5.8,94,79,53,30.48,30.17,8,0,8,0.01
2013-1-16,36.6,27.3,11.3,30.8,20.5,8.7,91,76,62,30.18,29.92,14,2,16,0.01
2013-1-17,35.3,28.6,19.5,31.7,20.9,15.4,90,74,53,30.45,30.11,11,1,11,0.00
2013-1-18,49.4,36.9,19.5,35.6,27.6,16.5,90,70,54,30.45,29.97,22,3,22,0.07
2013-1-19,53.4,42.8,27.1,39.7,33.3,14.9,78,69,55,30.13,29.80,15,3,18,0.00
2013-1-20,27.0,18.8,14.5,14.8,11.2,7.8,83,72,56,30.37,30.13,12,1,13,0.00
2013-1-21,15.0,9.4,5.0,9.5,1.5,-1.7,82,70,54,30.41,30.29,15,2,15,0.00
2013-1-22,16.9,10.2,1.6,4.6,0.7,-4.9,78,65,51,30.50,30.40,9,1,9,0.00
2013-1-23,35.1,21.6,14.1,19.2,10.5,3.8,72,62,48,30.44,30.15,15,2,16,0.00
2013-1-24,23.4,16.7,7.7,11.5,4.7,-1.0,73,59,46,30.67,30.30,14,2,14,0.00
2013-1-25,39.7,28.1,18.9,22.0,15.7,8.4,74,60,45,30.30,30.05,12,2,13,0.00
2013-1-26,32.4,23.1,10.9,17.3,11.6,5.9,81,62,45,30.44,30.27,14,1,14,0.00
2013-1-27,44.8,33.8,29.0,43.7,28.7,17.2,96,82,60,30.35,29.86,20,4,20,0.27
2013-1-28,57.4,49.3,44.9,56.1,48.1,43.7,98,96,93,29.94,29.71,14,2,14,0.01
2013-1-29,62.8,54.9,39.0,59.4,53.1,38.0,97,93,88,29.71,29.40,15,2,15,0.21
2013-1-30,39.0,29.9,17.7,37.9,27.7,13.2,96,91,81,29.82,29.26,15,2,15,0.09
2013-1-31,21.9,13.5,5.4,18.6,8.4,-0.5,87,80,72,30.35,29.81,13,2,16,0.00
2013-2-1,22.6,10.8,1.0,19.0,4.3,-4.3,86,75,67,30.48,30.20,13,2,13,0.00
2013-2-2,28.3,23.0,18.4,24.6,17.9,12.4,90,81,70,30.20,30.05,11,2,11,0.00
2013-2-3,29.7,24.3,19.0,22.7,18.3,15.5,93,78,62,30.16,29.98,13,1,13,0.01
2013-2-4,37.0,28.0,19.5,27.9,22.1,16.5,88,78,67,30.01,29.80,18,2,18,0.06
2013-2-5,42.1,30.8,19.3,33.3,26.2,16.1,90,83,70,30.12,29.86,11,1,12,0.15
2013-2-6,45.5,34.9,21.7,34.9,29.5,19.7,95,81,64,30.22,30.02,12,2,13,0.33
2013-2-7,38.4,36.8,33.8,37.1,34.9,32.0,96,93,86,30.06,29.86,13,2,17,0.72
2013-2-8,33.8,30.1,27.5,32.0,26.3,23.7,93,86,81,30.39,30.06,15,1,17,0.08
2013-2-9,36.6,31.9,27.5,32.2,27.6,23.9,88,84,77,30.39,30.01,17,4,17,0.01
2013-2-10,50.6,42.7,36.0,47.9,39.2,31.9,95,88,66,30.03,29.42,22,6,24,0.41
2013-2-11,39.7,34.1,30.3,32.6,26.3,24.4,80,73,66,30.12,29.59,16,3,18,0.00
2013-2-12,40.2,32.7,27.9,29.0,26.3,23.9,90,77,60,30.15,29.93,7,1,8,0.00
2013-2-13,47.6,36.0,24.7,34.6,29.8,22.4,94,79,59,29.93,29.73,7,1,7,0.00
2013-2-14,41.3,37.6,32.8,34.0,31.8,28.3,89,80,68,30.05,29.71,15,2,15,0.00
2013-2-15,35.2,27.8,21.1,28.3,17.7,13.2,87,67,43,30.27,30.05,13,1,13,0.00
2013-2-16,30.6,21.7,12.8,18.5,13.4,8.4,83,71,56,30.26,30.17,11,1,11,0.00
2013-2-17,37.9,27.3,15.5,25.7,18.1,10.0,84,69,52,30.22,29.88,23,4,23,0.00
2013-2-18,53.8,38.8,23.1,46.3,32.8,19.3,94,80,62,29.88,29.47,17,3,17,0.42
2013-2-19,24.8,18.3,12.0,19.4,12.0,5.7,86,76,65,30.33,29.79,9,1,10,0.00
2013-2-20,23.1,14.9,5.0,14.1,8.2,-0.1,82,74,64,30.48,30.33,9,1,9,0.00
2013-2-21,30.0,23.2,13.3,25.4,19.2,10.2,92,85,78,30.40,29.88,19,2,22,0.00
2013-2-22,32.7,29.5,25.8,30.9,25.9,20.5,95,87,78,30.00,29.78,12,2,13,0.01
2013-2-23,32.0,26.0,19.9,22.8,19.8,15.7,84,77,67,30.01,29.97,9,1,11,0.02
2013-2-24,38.6,27.1,14.3,27.5,20.8,11.9,93,78,61,30.14,30.01,8,1,8,0.11
2013-2-25,44.0,34.7,23.8,34.3,29.0,21.6,93,80,60,30.13,29.85,13,2,13,0.08
2013-2-26,36.4,33.5,31.4,32.3,30.7,29.1,95,89,77,29.86,29.51,18,4,19,0.05
2013-2-27,34.2,32.3,30.5,32.7,30.6,29.0,95,94,92,29.84,29.61,10,1,11,0.20
2013-2-28,36.9,33.6,31.3,32.9,30.9,29.8,95,90,82,30.10,29.83,10,1,10,0.13
2013-3-1,32.2,28.1,25.5,29.9,24.0,19.9,94,85,76,30.26,30.09,12,2,12,0.04
2013-3-2,32.4,23.9,13.0,20.7,16.5,10.2,90,74,57,30.28,30.23,10,1,10,0.02
2013-3-3,33.0,23.3,9.2,21.3,14.1,6.6,93,70,46,30.23,30.08,9,1,9,0.00
2013-3-4,38.0,32.2,27.2,30.0,26.3,18.1,90,79,67,30.10,29.88,18,4,19,0.04
2013-3-5,33.7,31.8,28.5,30.9,28.9,25.3,94,89,83,30.14,29.87,15,1,15,0.06
2013-3-6,31.4,27.7,22.9,25.9,22.9,19.6,88,82,74,30.37,30.14,10,1,10,0.06
2013-3-7,36.4,29.7,24.6,27.8,24.3,20.8,87,80,68,30.44,30.37,9,1,9,0.05
2013-3-8,43.9,35.7,26.1,35.6,30.1,23.3,89,80,68,30.43,30.21,13,3,14,0.04
2013-3-9,47.9,41.3,36.8,42.8,37.6,33.1,94,87,79,30.21,29.78,15,3,15,0.35
2013-3-10,50.9,46.6,42.1,49.5,45.3,40.0,96,95,92,29.82,29.55,10,1,10,0.16
2013-3-11,43.7,35.5,30.5,42.9,33.6,26.0,97,93,83,29.92,29.60,12,2,13,0.04
2013-3-12,38.7,31.0,25.4,32.2,26.6,21.1,91,83,71,30.16,29.91,13,2,15,0.27
2013-3-13,39.2,29.2,22.3,24.2,20.3,16.8,87,71,43,30.39,30.15,11,2,15,0.01
2013-3-14,48.0,35.5,22.5,33.8,27.4,19.5,90,73,53,30.38,30.07,16,2,16,0.00
2013-3-15,52.1,41.7,30.1,40.9,35.3,28.1,95,79,58,30.07,29.66,9,1,9,0.00
2013-3-16,40.2,36.5,32.9,37.1,32.3,28.1,95,85,69,30.13,29.66,10,1,10,0.00
2013-3-17,38.9,33.3,28.3,29.2,26.3,21.8,86,75,64,30.18,29.90,17,3,17,0.00
2013-3-18,40.2,32.8,25.6,35.2,28.0,17.0,94,83,68,29.95,29.71,17,2,17,0.04
2013-3-19,40.9,29.2,19.5,21.6,16.2,11.6,73,60,38,30.18,29.92,14,2,14,0.00
2013-3-20,32.1,24.4,16.1,21.4,12.4,8.7,77,61,42,30.24,30.13,15,2,19,0.00
2013-3-21,38.1,25.0,11.7,17.0,12.4,7.8,86,61,38,30.15,30.03,9,1,9,0.00
2013-3-22,45.3,32.9,19.2,25.1,19.4,14.9,87,60,36,30.10,30.00,8,1,8,0.00
2013-3-23,49.5,38.6,29.2,29.9,25.2,22.1,91,60,35,30.10,29.96,10,2,11,0.00
2013-3-24,33.5,31.4,29.8,31.7,29.5,27.8,94,93,91,30.00,29.70,11,1,13,0.09
2013-3-25,38.8,33.1,29.0,29.7,27.7,25.6,93,81,67,30.17,29.82,12,1,13,0.24
2013-3-26,43.2,35.5,27.2,30.2,27.5,23.6,86,73,57,30.32,30.17,8,1,9,0.00
2013-3-27,45.9,37.6,29.1,30.3,27.2,24.3,85,67,48,30.38,30.30,7,1,7,0.00
2013-3-28,53.1,40.1,24.9,32.6,28.2,22.3,92,65,42,30.38,30.27,8,1,9,0.00
2013-3-29,60.4,46.2,30.2,36.0,31.5,26.9,90,60,34,30.30,30.19,8,1,8,0.00
2013-3-30,57.6,47.3,36.2,44.6,38.7,30.9,90,73,53,30.20,29.87,16,2,18,0.00
2013-3-31,61.9,50.0,38.4,46.9,39.2,27.0,94,69,36,29.97,29.80,12,1,16,0.00
2013-4-1,45.7,36.5,27.9,27.2,22.2,17.8,81,58,35,30.26,29.97,11,2,13,0.00
2013-4-2,49.6,35.5,20.7,26.3,19.9,11.9,89,57,25,30.35,30.26,12,1,12,0.00
2013-4-3,51.2,38.1,25.5,22.2,18.5,14.5,75,49,24,30.46,30.29,10,1,11,0.00
2013-4-4,64.1,45.6,27.6,34.4,25.4,20.8,81,49,21,30.29,30.00,7,1,7,0.00
2013-4-5,60.9,48.8,33.4,36.0,29.4,23.9,84,51,26,30.20,30.02,11,2,14,0.00
2013-4-6,71.7,57.7,45.6,52.9,36.6,24.3,79,47,29,30.02,29.60,26,5,26,0.06
2013-4-7,68.7,54.8,38.0,46.9,43.0,36.1,95,67,41,29.93,29.71,11,1,12,0.00
2013-4-8,73.4,63.4,52.6,59.4,55.0,42.2,96,75,55,29.83,29.55,16,2,16,0.84
2013-4-9,78.2,65.9,51.3,63.2,57.8,47.1,88,76,56,29.83,29.73,13,3,16,0.00
2013-4-10,51.3,45.3,41.3,47.3,43.2,39.2,95,92,86,29.92,29.65,17,3,17,1.14
2013-4-11,49.0,44.6,38.2,46.3,41.5,31.6,96,89,78,29.66,29.59,15,2,16,0.09
2013-4-12,44.6,40.1,37.3,38.0,34.8,32.1,92,81,70,29.93,29.61,11,2,11,0.01
2013-4-13,53.9,44.8,35.4,37.1,32.9,27.1,85,64,46,30.01,29.92,11,1,14,0.00
2013-4-14,76.2,60.7,46.1,55.0,45.0,35.4,79,58,35,29.93,29.53,21,5,22,0.15
2013-4-15,62.7,53.7,43.1,55.2,48.9,38.9,96,84,54,29.99,29.65,11,1,11,0.39
2013-4-16,53.2,46.3,37.1,42.7,38.2,33.9,89,74,57,30.20,29.96,8,1,9,0.00
2013-4-17,58.7,47.9,43.7,57.3,43.5,36.5,97,85,70,30.20,29.66,22,3,22,1.36
2013-4-18,63.4,52.3,38.8,61.3,50.1,32.8,97,92,79,29.73,29.39,19,4,21,1.63
2013-4-19,41.5,38.2,36.0,34.3,31.4,26.5,85,76,68,30.03,29.60,13,2,14,0.01
2013-4-20,51.5,40.4,27.9,35.0,28.8,23.9,93,65,39,30.37,30.03,7,1,7,0.00
2013-4-21,59.2,48.6,38.3,42.0,35.9,29.7,75,62,50,30.43,30.23,18,5,19,0.00
2013-4-22,68.6,57.8,46.0,50.7,40.3,36.5,85,54,33,30.25,29.96,19,3,19,0.02
2013-4-23,55.0,44.5,38.8,51.2,41.9,36.5,94,91,84,30.03,29.91,12,1,12,0.34
2013-4-24,54.2,44.0,36.0,38.5,34.1,28.2,93,71,40,30.15,29.99,11,1,11,0.04
2013-4-25,58.7,48.2,38.2,37.6,34.0,30.3,84,60,36,30.30,30.11,13,1,14,0.02
2013-4-26,64.5,54.8,44.6,48.9,42.3,33.9,80,63,49,30.29,30.21,17,3,17,0.00
2013-4-27,63.6,54.5,43.4,50.6,46.8,41.3,95,77,52,30.26,29.96,14,1,14,0.00
2013-4-28,72.8,60.8,51.9,55.6,51.3,48.9,91,73,47,29.96,29.80,8,1,8,0.00
2013-4-29,78.6,64.6,49.5,61.1,54.9,47.2,92,73,52,29.87,29.66,17,3,19,0.00
2013-4-30,86.2,74.6,62.2,62.6,57.2,51.4,89,58,32,29.87,29.67,18,3,18,0.00
2013-5-1,83.9,74.6,62.9,57.7,53.9,47.6,72,51,30,30.07,29.86,13,2,13,0.00
2013-5-2,63.9,54.1,42.8,52.4,46.3,39.7,92,76,59,30.17,30.05,12,1,13,0.04
2013-5-3,56.4,45.6,40.7,55.2,44.3,39.1,97,95,92,30.12,29.81,13,1,13,1.11
2013-5-4,66.0,59.1,54.8,58.7,56.0,52.8,96,89,71,30.01,29.83,14,2,16,0.15
2013-5-5,75.0,62.1,50.6,59.9,52.2,42.8,97,74,35,30.01,29.90,13,1,13,0.01
2013-5-6,77.5,66.3,55.8,57.1,50.8,44.2,87,60,35,30.02,29.93,10,1,14,0.00
2013-5-7,81.8,67.9,51.2,50.6,45.1,38.1,81,48,23,30.02,29.93,8,0,8,0.00
2013-5-8,82.3,68.4,50.1,57.5,49.9,44.1,90,56,29,30.00,29.92,6,0,6,0.00
2013-5-9,70.0,63.5,60.6,62.5,60.0,56.7,96,89,74,29.94,29.77,12,1,13,0.90
2013-5-10,61.2,53.7,46.8,60.1,51.3,45.1,96,91,85,29.98,29.78,8,0,8,0.00
2013-5-11,63.7,51.8,40.0,53.8,40.0,30.2,97,68,34,30.12,29.92,14,1,14,0.00
2013-5-12,61.1,48.1,34.6,37.2,32.6,28.5,89,58,33,30.20,30.10,10,0,11,0.00
2013-5-13,71.7,56.5,36.0,43.0,37.2,30.8,92,54,25,30.18,29.95,8,1,8,0.00
2013-5-14,91.8,74.3,56.3,64.1,55.2,42.3,73,53,33,29.95,29.63,15,2,15,0.00
2013-5-15,83.2,74.1,62.0,63.1,56.8,49.3,74,56,34,29.81,29.68,11,1,13,0.00
2013-5-16,82.8,71.1,58.3,62.9,56.3,49.1,94,63,33,29.91,29.79,9,0,9,0.07
2013-5-17,80.8,72.4,60.1,64.3,60.2,54.1,91,67,42,29.94,29.86,11,1,11,0.00
2013-5-18,81.3,73.1,64.5,67.0,63.6,61.4,94,74,54,29.97,29.84,11,1,11,0.00
2013-5-19,87.5,74.2,64.3,71.9,65.8,58.8,90,76,51,29.86,29.63,19,2,19,0.08
2013-5-20,82.0,70.8,62.1,66.6,62.3,59.7,93,76,51,29.75,29.57,21,2,21,0.95
2013-5-21,79.6,70.0,61.8,66.0,61.4,58.6,94,76,53,29.67,29.62,12,2,12,0.00
2013-5-22,71.9,64.4,59.4,59.7,57.1,54.4,90,78,56,29.77,29.60,7,0,7,0.00
2013-5-23,66.8,59.1,53.3,56.3,53.0,48.6,95,81,55,30.24,29.77,11,1,12,0.06
2013-5-24,68.1,56.4,43.2,49.3,42.7,37.7,93,63,35,30.42,30.24,10,1,10,0.00
2013-5-25,57.5,52.1,47.2,49.6,45.3,39.2,93,78,60,30.38,30.21,11,1,12,0.48
2013-5-26,66.0,56.6,51.1,59.7,53.8,48.3,95,90,78,30.23,30.00,14,2,14,1.45
2013-5-27,71.3,64.7,58.9,67.2,62.2,56.9,97,92,83,30.01,29.75,13,2,14,0.03
2013-5-28,77.6,69.1,64.0,71.2,66.2,62.5,97,91,80,29.86,29.63,17,1,17,2.94
2013-5-29,84.3,73.2,60.7,72.5,66.0,59.6,97,79,60,29.92,29.74,14,1,15,0.55
2013-5-30,82.8,72.7,62.9,71.5,65.8,60.1,95,80,62,29.82,29.67,18,2,18,0.68
2013-5-31,72.8,66.8,62.4,69.3,64.5,59.4,96,92,83,29.83,29.65,13,1,13,0.29
2013-6-1,76.8,68.2,62.5,68.9,62.8,58.3,95,84,58,29.78,29.65,9,1,9,0.01
2013-6-2,63.0,60.0,52.6,59.5,53.8,47.1,90,80,64,30.02,29.77,7,0,8,0.00
2013-6-3,69.3,60.3,47.7,51.0,49.0,44.6,96,68,46,30.12,29.99,8,1,9,0.00
2013-6-4,73.9,64.7,52.8,57.7,52.2,48.1,86,65,46,30.11,29.98,13,1,13,0.00
2013-6-5,76.2,66.7,58.6,61.6,58.1,54.5,93,75,53,30.02,29.85,8,0,8,0.05
2013-6-6,71.2,62.2,57.8,63.1,58.5,56.1,96,88,71,29.89,29.83,8,0,8,0.13
2013-6-7,72.8,63.8,53.7,59.3,55.3,51.6,94,75,54,29.93,29.87,8,0,9,0.00
2013-6-8,76.4,67.1,54.3,57.7,54.0,49.5,89,65,48,29.94,29.87,9,1,9,0.00
2013-6-9,76.7,68.2,62.5,64.6,60.7,54.9,92,77,62,29.90,29.72,10,1,13,0.02
2013-6-10,79.8,68.8,60.3,66.7,61.8,58.9,97,80,57,29.86,29.71,5,0,7,0.00
2013-6-11,85.5,73.3,59.2,74.1,66.0,57.7,97,79,61,29.90,29.75,11,0,12,0.00
2013-6-12,93.5,81.0,0.0,75.7,71.0,66.5,91,73,49,29.83,29.56,11,1,12,0.13
2013-6-13,85.1,74.4,66.0,66.7,60.3,54.8,91,64,38,29.97,29.65,12,1,13,0.00
2013-6-14,79.8,71.2,60.3,62.4,58.3,54.4,84,65,49,30.09,29.91,9,1,9,0.00
2013-6-15,79.2,71.3,66.6,72.0,66.2,59.2,95,84,67,30.00,29.82,12,1,13,0.99
2013-6-16,81.8,71.7,63.9,71.8,66.7,62.6,97,85,64,29.93,29.87,4,0,5,0.00
2013-6-17,88.8,76.7,63.0,71.8,65.1,56.7,98,71,37,29.92,29.84,4,0,4,0.00
2013-6-18,82.7,72.9,63.5,66.6,61.6,56.8,92,69,50,30.00,29.83,9,1,9,0.00
2013-6-19,84.5,71.7,57.1,63.9,57.6,50.8,83,63,42,30.08,29.99,9,0,9,0.00
2013-6-20,89.5,78.3,65.0,68.9,63.1,57.6,80,61,39,30.08,29.97,10,1,10,0.00
2013-6-21,89.9,77.4,70.1,75.7,68.6,64.0,89,75,55,30.06,29.88,15,1,17,0.04
2013-6-22,91.7,80.8,73.2,77.1,72.3,65.5,88,76,57,30.01,29.88,12,1,14,0.00
2013-6-23,89.2,75.1,69.0,73.9,67.7,63.5,88,78,59,29.98,29.82,11,1,11,0.02
2013-6-24,86.7,72.4,67.9,74.7,67.5,64.3,95,85,64,30.08,29.83,11,1,15,0.70
2013-6-25,86.8,78.0,69.5,76.4,71.9,67.1,93,82,67,29.88,29.75,9,0,9,0.01
2013-6-26,87.3,76.9,66.7,76.3,71.8,64.9,96,85,67,29.79,29.67,9,0,9,0.49
2013-6-27,90.4,78.8,70.3,75.4,70.9,66.2,96,78,55,29.82,29.72,1,0,1,0.00
2013-6-28,85.8,75.6,64.7,68.8,63.8,59.2,94,69,42,29.77,29.63,10,0,10,0.00
2013-6-29,74.0,67.3,63.5,68.3,63.5,60.6,95,88,77,29.77,29.60,8,0,8,0.34
2013-6-30,79.6,69.9,60.8,67.1,61.5,56.6,96,77,57,29.98,29.77,11,0,11,0.00
2013-7-1,81.1,69.7,59.9,59.1,54.0,50.8,77,59,36,30.03,29.96,11,1,11,0.00
2013-7-2,80.0,69.3,58.3,61.2,55.4,51.1,83,63,44,30.05,29.98,9,0,9,0.00
2013-7-3,80.5,67.4,56.4,62.1,55.2,49.3,91,68,36,30.05,29.98,4,0,6,0.00
2013-7-4,85.2,74.4,61.7,67.6,61.3,55.5,88,66,43,30.05,29.96,7,0,7,0.00
2013-7-5,85.9,76.7,65.8,68.4,63.1,58.4,88,65,43,30.03,29.95,9,1,9,0.00
2013-7-6,86.9,77.0,66.0,71.3,66.3,62.0,90,71,50,30.00,29.91,10,0,11,0.00
2013-7-7,89.5,76.6,0.0,72.7,69.0,67.8,86,78,54,29.95,29.90,10,0,10,0.00
2013-7-8,87.5,78.8,71.4,76.0,72.3,69.2,94,81,65,29.98,29.90,9,1,10,0.54
2013-7-9,88.0,82.2,77.2,78.3,75.2,72.4,90,80,67,29.95,29.82,7,0,7,0.00
2013-7-10,88.7,79.4,0.0,75.4,68.6,60.6,91,70,48,29.98,29.80,10,0,10,0.00
2013-7-11,83.0,72.5,61.9,65.5,59.9,55.7,90,67,42,30.07,29.98,10,0,12,0.00
2013-7-12,84.9,72.3,57.8,61.7,57.8,54.6,93,63,40,30.12,30.03,7,1,8,0.00
2013-7-13,84.8,73.6,60.4,64.6,61.1,56.6,89,67,47,30.11,30.02,10,1,10,0.00
2013-7-14,87.8,78.5,68.6,69.7,66.6,62.6,86,68,49,30.13,30.06,10,1,10,0.00
2013-7-15,91.0,81.7,71.9,76.4,72.4,68.4,91,74,55,30.20,30.12,10,1,10,0.00
2013-7-16,89.8,82.5,74.8,77.1,74.1,72.3,93,77,61,30.25,30.18,6,0,6,0.00
2013-7-17,94.9,84.3,73.1,77.9,73.6,70.5,93,72,49,30.27,30.13,7,0,7,0.00
2013-7-18,94.7,84.4,75.1,76.3,73.9,71.5,91,72,50,30.15,29.92,6,0,7,0.00
2013-7-19,95.3,86.0,77.2,76.5,72.5,69.2,82,66,43,29.92,29.75,5,1,8,0.00
2013-7-20,89.3,80.5,72.4,71.8,66.5,61.7,82,64,41,29.88,29.79,8,0,8,0.00
2013-7-21,81.5,74.7,68.0,73.1,69.2,64.6,94,83,70,29.89,29.80,10,0,10,0.04
2013-7-22,88.0,76.1,65.1,74.4,69.5,63.7,97,81,61,29.84,29.71,12,0,13,0.07
2013-7-23,81.8,71.1,63.5,70.3,64.1,59.7,96,80,61,29.92,29.71,8,0,8,0.00
2013-7-24,78.0,67.6,58.2,60.3,57.1,54.5,94,71,48,30.04,29.92,5,0,10,0.00
2013-7-25,81.8,70.6,57.0,63.0,59.1,54.1,91,69,48,30.08,30.00,7,0,7,0.00
2013-7-26,77.8,67.3,59.4,71.0,63.6,57.0,96,88,73,30.00,29.86,7,0,8,1.26
2013-7-27,69.6,61.7,55.7,58.3,53.5,49.0,95,76,53,29.97,29.91,8,0,8,0.00
2013-7-28,74.5,63.0,53.1,58.6,53.2,48.5,88,72,51,30.04,29.92,6,0,7,0.00
2013-7-29,77.6,66.7,51.8,59.7,55.8,50.1,96,70,46,30.13,30.03,6,0,7,0.00
2013-7-30,69.1,66.9,63.6,68.2,63.5,57.4,97,90,67,30.11,29.99,9,1,12,0.57
2013-7-31,77.2,70.5,66.5,70.5,67.2,64.7,97,90,72,30.03,29.95,6,0,6,0.03
2013-8-1,84.4,73.2,61.5,68.1,63.6,60.3,97,75,48,30.03,29.90,4,0,5,0.00
2013-8-2,86.3,76.4,67.2,71.5,67.1,63.1,94,74,53,29.93,29.83,7,0,7,0.34
2013-8-3,82.5,72.0,63.3,66.4,61.4,56.4,95,72,44,30.10,29.93,7,0,7,0.01
2013-8-4,81.0,70.3,59.5,61.8,57.7,53.6,87,67,41,30.16,30.06,8,0,8,0.00
2013-8-5,75.6,68.9,62.0,69.0,63.4,57.2,91,83,76,30.06,29.83,9,0,10,0.00
2013-8-6,88.2,76.6,67.1,76.6,71.3,65.7,97,84,63,29.87,29.76,6,1,7,0.00
2013-8-7,88.7,78.5,68.6,77.4,71.1,63.6,92,79,56,29.91,29.74,8,0,8,0.00
2013-8-8,81.4,73.0,64.1,70.0,65.2,61.4,92,77,62,29.97,29.90,9,0,9,0.00
2013-8-9,83.7,73.7,62.3,69.1,65.1,59.0,92,76,57,30.04,29.95,4,0,4,0.00
2013-8-10,82.7,71.5,60.3,65.2,59.9,56.0,92,69,42,30.13,30.04,8,0,9,0.00
2013-8-11,84.8,73.0,59.7,67.7,62.9,57.4,93,72,51,30.11,30.00,7,0,7,0.00
2013-8-12,81.0,73.9,66.7,71.7,66.2,61.1,86,77,64,30.01,29.86,7,0,7,0.00
2013-8-13,75.7,66.5,56.6,62.1,56.3,50.8,92,71,47,30.13,29.93,9,0,9,0.00
2013-8-14,77.2,63.9,50.7,58.5,51.9,48.1,95,68,38,30.21,30.11,10,0,10,0.00
2013-8-15,75.8,65.5,57.9,59.1,55.3,52.6,89,71,47,30.16,30.07,7,0,8,0.00
2013-8-16,81.0,68.0,55.4,61.1,56.7,53.1,93,70,40,30.16,30.11,7,0,8,0.00
2013-8-17,80.5,68.7,56.3,60.4,57.6,54.6,96,71,46,30.19,30.11,10,1,10,0.00
2013-8-18,83.0,70.4,57.1,63.7,59.8,54.9,93,72,45,30.17,30.06,8,0,9,0.00
2013-8-19,85.2,73.5,61.1,69.2,63.9,58.6,94,73,52,30.09,29.99,6,0,6,0.00
2013-8-20,86.8,76.6,66.3,70.1,66.3,62.6,89,72,50,30.06,29.98,8,1,9,0.00
2013-8-21,88.7,79.0,68.9,71.2,67.9,64.7,87,70,51,30.05,29.94,9,1,10,0.00
2013-8-22,83.3,76.0,70.5,73.3,68.6,66.4,87,78,68,30.07,29.96,13,1,13,0.00
2013-8-23,85.7,74.5,64.0,70.0,65.8,62.1,96,76,51,30.12,30.05,9,1,9,0.00
2013-8-24,87.8,76.4,64.0,72.8,65.9,58.3,83,71,56,30.18,30.10,8,1,8,0.00
2013-8-25,90.0,79.1,69.8,73.6,67.9,63.7,84,70,45,30.21,30.09,8,1,9,0.00
2013-8-26,93.8,81.3,68.6,75.1,69.6,63.7,86,69,48,30.12,29.95,8,1,10,0.00
2013-8-27,94.6,83.4,73.1,75.9,70.7,65.2,88,67,48,29.97,29.84,10,1,10,0.00
2013-8-28,95.6,83.3,71.7,77.9,71.7,65.0,88,69,53,29.95,29.87,7,0,7,0.00
2013-8-29,89.2,80.2,72.8,76.6,72.9,68.7,89,79,64,30.02,29.91,8,1,8,0.00
2013-8-30,98.8,84.5,73.3,78.3,73.4,65.4,94,72,44,29.92,29.73,12,0,13,0.00
2013-8-31,90.7,79.5,70.9,75.7,69.7,63.8,89,72,58,29.77,29.70,9,0,11,0.00
2013-9-1,91.5,76.9,67.2,74.4,67.7,60.8,97,76,47,29.83,29.71,7,0,7,0.00
2013-9-2,82.7,69.8,59.6,66.2,59.0,53.1,94,71,43,29.98,29.83,7,0,8,0.00
2013-9-3,80.8,65.6,53.3,60.8,56.1,51.4,95,74,46,30.08,29.98,5,0,5,0.00
2013-9-4,87.8,70.6,54.1,62.5,57.9,52.4,96,68,36,30.13,30.02,4,0,4,0.00
2013-9-5,89.8,76.5,63.2,68.7,63.0,58.2,87,65,40,30.16,30.09,7,0,7,0.00
2013-9-6,87.8,75.1,62.1,66.4,61.3,54.4,76,64,42,30.14,29.97,9,1,9,0.00
2013-9-7,90.3,78.2,65.5,70.8,66.5,60.6,85,69,51,29.98,29.83,11,1,11,0.00
2013-9-8,84.6,77.4,70.0,73.1,70.7,67.9,94,81,65,29.94,29.81,21,1,21,1.66
2013-9-9,95.8,82.4,71.5,75.9,71.9,66.0,95,73,46,29.86,29.78,7,1,7,0.00
2013-9-10,95.0,82.1,69.3,73.1,66.9,63.3,83,62,39,29.98,29.86,10,1,10,0.00
2013-9-11,90.3,77.9,71.2,73.5,68.6,64.9,95,74,50,30.02,29.96,5,0,6,0.06
2013-9-12,82.3,72.7,60.5,70.2,59.5,46.6,96,68,31,30.08,29.97,8,0,9,0.00
2013-9-13,72.0,60.8,51.2,51.4,45.7,35.6,87,61,28,30.18,30.06,11,1,11,0.00
2013-9-14,72.5,60.3,47.4,51.4,46.9,42.7,90,64,39,30.17,29.99,8,0,8,0.00
2013-9-15,65.3,60.3,57.3,62.0,54.9,46.8,94,83,63,30.16,29.94,7,0,7,0.50
2013-9-16,71.0,60.6,53.5,57.1,52.8,48.4,96,77,55,30.33,30.16,10,1,10,0.00
2013-9-17,70.7,62.0,51.3,61.3,55.1,47.5,90,79,68,30.29,30.05,9,1,9,0.00
2013-9-18,83.3,72.9,62.9,72.1,65.5,57.0,86,78,67,30.05,29.84,11,1,11,0.06
2013-9-19,90.3,78.4,67.8,72.6,69.2,64.5,95,75,49,29.88,29.72,9,1,10,0.68
2013-9-20,72.3,65.6,55.9,66.2,59.6,51.8,96,82,52,29.88,29.77,7,0,7,0.04
2013-9-21,71.5,58.7,49.2,55.9,50.6,47.3,94,77,47,29.94,29.86,6,0,6,0.00
2013-9-22,72.0,59.7,50.2,54.7,49.8,46.4,93,72,46,30.04,29.93,7,0,7,0.00
2013-9-23,73.5,61.4,49.0,55.4,49.7,45.3,87,67,45,30.05,29.93,11,1,11,0.00
2013-9-24,76.0,64.2,52.8,59.8,53.1,48.0,85,68,51,29.96,29.83,9,1,12,0.00
2013-9-25,78.2,66.2,54.1,60.6,55.2,50.3,88,69,50,29.91,29.84,9,1,11,0.00
2013-9-26,81.2,68.6,57.1,64.2,57.4,52.4,86,69,49,30.00,29.89,8,1,11,0.00
2013-9-27,80.8,69.6,58.1,64.1,55.2,50.3,78,61,41,30.08,29.96,12,1,13,0.00
2013-9-28,80.0,67.6,57.8,67.5,60.1,54.3,92,78,60,29.99,29.86,19,1,19,0.02
2013-9-29,72.4,59.7,49.3,55.3,48.1,39.0,96,70,33,30.07,29.97,9,0,9,0.01
2013-9-30,75.5,62.5,48.8,58.3,51.5,45.8,91,70,43,29.98,29.83,9,1,9,0.00
2013-10-1,82.1,69.5,60.2,67.7,62.6,57.6,96,80,52,29.94,29.85,12,1,12,0.00
2013-10-2,81.0,70.6,62.8,68.3,64.5,61.6,97,82,57,30.02,29.90,9,1,10,0.00
2013-10-3,79.2,70.6,66.1,72.0,66.7,61.9,96,88,71,29.90,29.77,12,1,12,0.74
2013-10-4,83.3,74.0,66.7,72.5,68.1,63.3,96,83,64,29.91,29.83,9,1,9,0.00
2013-10-5,75.3,68.7,54.6,70.6,64.5,50.8,94,87,74,29.86,29.76,11,1,11,0.07
2013-10-6,54.7,49.0,44.5,50.9,43.7,39.6,93,82,64,29.82,29.74,8,0,8,0.02
2013-10-7,70.2,56.4,45.0,53.0,47.8,43.1,96,76,45,30.08,29.82,7,0,7,0.01
2013-10-8,75.3,60.6,46.5,53.4,48.8,44.6,94,68,37,30.16,30.07,9,0,10,0.00
2013-10-9,71.9,58.8,47.8,52.1,48.4,44.6,93,71,38,30.18,30.08,8,0,9,0.00
2013-10-10,74.7,60.3,47.7,59.1,52.9,45.6,94,79,52,30.13,29.97,8,0,9,0.00
2013-10-11,76.5,65.6,55.9,61.6,56.7,53.4,94,75,50,30.00,29.84,16,1,16,0.00
2013-10-12,70.3,62.2,46.8,60.2,50.6,40.5,88,68,40,30.20,29.87,6,0,6,0.00
2013-10-13,65.1,52.0,40.0,44.4,37.6,27.8,91,63,25,30.40,30.20,5,0,6,0.00
2013-10-14,63.8,53.2,41.8,47.2,40.9,35.6,89,65,43,30.38,30.03,11,1,11,0.00
2013-10-15,68.5,58.8,46.3,61.9,51.3,41.6,95,77,57,30.03,29.78,11,1,12,0.11
2013-10-16,52.7,50.6,46.8,46.0,44.4,41.8,84,79,75,29.98,29.89,7,0,7,0.00
2013-10-17,60.6,50.9,43.8,47.9,43.1,36.7,94,77,43,29.96,29.83,6,0,6,0.05
2013-10-18,53.7,46.7,42.4,42.1,40.0,38.3,93,78,59,30.01,29.86,7,0,7,0.01
2013-10-19,55.4,47.4,36.6,41.0,38.0,33.9,91,71,48,29.97,29.82,10,1,10,0.00
2013-10-20,68.0,52.8,40.5,49.5,43.4,37.9,92,72,40,29.85,29.70,12,1,12,0.00
2013-10-21,55.2,43.4,32.5,49.0,34.7,26.1,92,73,44,30.02,29.83,9,0,9,0.07
2013-10-22,40.9,37.4,32.0,39.0,34.6,28.3,95,90,77,30.02,29.85,8,0,8,0.28
2013-10-23,45.4,38.6,29.9,38.2,32.7,28.3,95,80,57,30.09,30.00,6,0,6,0.01
2013-10-24,43.2,36.9,28.7,36.3,27.7,24.5,91,70,50,30.38,30.08,7,0,7,0.00
2013-10-25,53.7,40.0,26.6,36.8,28.2,24.6,94,67,34,30.45,30.10,9,1,9,0.00
2013-10-26,55.3,45.6,33.4,39.9,32.4,27.9,86,61,41,30.13,29.95,11,1,11,0.00
2013-10-27,56.9,42.5,29.2,36.7,31.4,26.8,93,68,39,30.11,29.97,8,0,9,0.00
2013-10-28,60.8,46.5,34.4,40.9,35.3,31.3,89,68,37,30.31,30.05,9,1,9,0.00
2013-10-29,55.4,48.0,39.5,50.8,41.8,36.7,94,80,58,30.30,30.08,10,1,10,0.00
2013-10-30,63.8,57.1,52.5,63.2,56.2,50.8,98,97,94,30.08,29.72,11,1,11,0.96
2013-10-31,63.8,56.1,44.7,62.9,54.8,42.9,97,95,92,29.72,29.32,10,1,11,0.46
2013-11-1,51.1,46.3,41.0,45.8,43.8,39.6,96,91,80,29.78,29.48,6,0,10,0.02
2013-11-2,51.3,42.4,32.9,41.2,37.3,31.1,96,83,58,30.17,29.78,5,0,8,0.00
2013-11-3,53.6,42.6,29.8,38.2,33.9,28.5,96,74,51,30.28,30.14,13,1,13,0.00
2013-11-4,56.7,51.4,45.7,46.1,41.9,37.1,77,70,59,30.16,30.04,14,2,14,0.00
2013-11-5,55.7,53.6,52.0,53.2,50.4,45.9,95,89,76,30.21,29.88,13,1,15,0.10
2013-11-6,57.0,45.0,31.1,55.9,42.2,28.3,96,90,79,30.24,29.79,13,1,13,0.30
2013-11-7,44.7,35.3,27.5,38.5,31.4,25.9,95,86,68,30.31,30.24,7,0,9,0.00
2013-11-8,50.2,40.7,27.0,37.3,32.2,25.5,96,74,54,30.34,29.92,13,2,17,0.01
2013-11-9,61.3,51.1,42.5,42.1,39.1,35.1,80,64,46,30.21,29.90,14,2,15,0.00
2013-11-10,50.0,40.9,31.0,35.5,32.1,27.6,88,72,51,30.42,30.21,4,0,7,0.00
2013-11-11,51.2,40.1,24.0,40.6,32.5,19.0,93,75,59,30.58,30.10,14,1,16,0.01
2013-11-12,33.2,23.9,17.8,23.3,17.9,14.0,88,78,58,30.80,30.58,7,0,8,0.01
2013-11-13,43.7,31.4,19.0,23.5,18.9,15.4,88,62,35,30.67,30.19,14,2,15,0.01
2013-11-14,53.9,42.6,32.8,29.7,25.2,19.9,66,51,36,30.20,29.95,14,3,15,0.01
2013-11-15,50.6,43.5,36.8,38.3,32.2,23.1,82,65,48,29.99,29.86,11,2,11,0.00
2013-11-16,59.5,53.5,41.8,55.9,50.2,37.4,93,89,82,29.86,29.51,15,4,17,0.07
2013-11-17,68.2,55.3,43.8,63.6,51.3,39.4,95,86,76,29.87,29.14,17,2,22,0.21
2013-11-18,47.7,39.7,28.2,39.4,33.2,25.5,90,78,57,30.30,29.87,10,1,12,0.00
2013-11-19,47.2,35.9,26.5,30.8,28.0,24.4,93,75,50,30.37,30.21,11,2,12,0.00
2013-11-20,42.2,37.9,34.7,38.8,33.3,29.4,93,84,74,30.22,30.00,17,4,17,0.28
2013-11-21,48.8,44.8,41.4,44.8,41.3,38.8,92,88,84,30.26,30.06,7,0,7,0.03
2013-11-22,41.4,34.2,23.0,39.3,30.8,20.4,94,88,75,30.56,30.25,14,1,14,0.03
2013-11-23,26.4,21.2,12.5,20.5,14.3,7.8,90,75,59,30.79,30.54,12,1,12,0.00
2013-11-24,29.7,19.6,9.4,14.4,9.8,5.9,88,67,37,30.80,30.39,10,2,10,0.00
2013-11-25,36.0,30.4,23.5,27.5,21.8,14.1,86,70,60,30.39,30.13,13,2,13,0.00
2013-11-26,34.3,27.8,17.5,28.0,20.0,9.7,87,73,50,30.28,30.09,13,1,14,0.00
2013-11-27,31.1,20.8,12.0,14.0,10.9,6.8,80,66,46,30.37,30.24,8,0,9,0.00
2013-11-28,39.7,27.7,18.9,22.6,17.6,11.9,87,66,49,30.53,30.18,9,1,10,0.00
2013-11-29,37.5,27.7,15.6,25.1,19.5,13.2,92,73,51,30.63,30.37,12,2,12,0.00
2013-11-30,53.2,38.0,29.2,36.7,30.4,24.8,92,75,53,30.37,30.06,12,1,12,0.00
2013-12-1,49.5,37.4,27.3,34.9,30.7,25.5,95,78,54,30.14,29.96,7,0,7,0.00
2013-12-2,46.0,39.9,34.6,38.4,34.8,29.4,92,82,69,29.96,29.65,14,2,14,0.00
2013-12-3,50.9,44.5,37.7,49.5,43.2,35.6,97,95,92,29.67,29.57,13,1,13,0.01
2013-12-4,53.4,46.0,30.1,52.8,44.7,26.6,98,95,87,29.82,29.48,10,2,10,0.01
2013-12-5,30.1,23.6,18.9,26.8,16.5,13.5,88,74,68,30.18,29.82,14,2,14,0.00
2013-12-6,23.2,23.2,23.2,14.2,14.2,14.2,68,68,68,30.17,30.17,1,1,5,0.00
2013-12-7,23.2,18.8,0.0,14.2,8.9,3.1,76,65,47,30.79,30.17,10,1,10,0.00
2013-12-8,24.0,21.0,14.2,21.8,16.5,7.0,92,83,71,30.60,30.02,13,2,13,0.00
2013-12-9,23.6,13.6,2.0,21.1,8.5,-1.5,90,80,64,30.32,30.04,12,1,12,0.00
2013-12-10,25.9,17.2,3.5,15.1,8.6,-0.8,83,69,57,30.33,30.11,14,2,14,0.00
2013-12-11,22.0,14.4,1.8,16.5,6.4,-5.0,86,71,53,30.67,30.27,11,1,12,0.00
2013-12-12,30.2,16.1,3.2,19.1,9.1,-2.7,89,74,62,30.63,30.25,12,1,12,0.00
2013-12-13,37.6,27.4,15.0,30.5,23.3,12.5,94,85,66,30.25,30.03,8,0,8,0.03
2013-12-14,31.6,27.4,16.0,30.1,25.1,12.8,95,91,85,30.11,29.95,8,0,9,0.00
2013-12-15,19.0,16.0,11.7,14.3,11.4,7.5,88,82,73,30.17,30.09,8,0,8,0.00
2013-12-16,23.0,18.9,14.3,21.0,15.8,10.9,93,87,82,30.16,30.04,8,1,8,0.00
2013-12-17,37.4,26.8,18.2,30.5,22.0,14.2,94,82,64,30.23,30.09,9,1,11,0.13
2013-12-18,41.8,29.2,13.4,32.6,21.3,10.7,90,73,49,30.22,29.85,14,2,14,0.10
2013-12-19,47.2,41.4,36.9,42.8,36.9,32.1,95,84,75,29.88,29.72,7,1,7,0.07
2013-12-20,44.2,33.3,29.0,42.9,32.0,27.5,96,95,93,29.87,29.71,9,1,11,0.08
2013-12-21,31.7,29.3,27.5,30.4,27.7,25.9,95,94,92,29.88,29.64,12,1,12,0.00
2013-12-22,32.2,27.3,16.4,31.2,25.1,13.1,96,91,86,30.25,29.64,9,0,9,0.00
2013-12-23,18.5,7.9,0.3,15.5,2.9,-5.3,88,80,72,30.59,30.25,8,1,8,0.00
2013-12-24,20.9,7.2,-5.9,14.7,1.9,-10.3,86,79,67,30.65,30.36,13,2,13,0.00
2013-12-25,29.4,26.2,20.9,26.4,22.7,14.4,94,87,77,30.36,30.19,10,2,10,0.00
2013-12-26,37.3,28.5,15.8,32.4,24.5,13.4,93,85,73,30.32,30.16,9,1,10,0.07
2013-12-27,42.2,32.9,21.1,34.3,28.5,19.4,96,84,72,30.32,30.15,10,1,10,0.09
2013-12-28,50.0,41.3,34.6,36.9,33.9,30.5,89,75,60,30.15,29.83,11,2,11,0.05
2013-12-29,39.2,22.3,3.8,31.8,17.9,-2.9,92,83,72,30.32,29.82,11,2,12,0.00
2013-12-30,14.8,7.6,-0.8,11.6,1.9,-6.5,87,77,59,30.39,30.24,8,0,8,0.00
2013-12-31,21.3,14.0,6.3,14.3,9.9,3.2,90,83,73,30.43,30.26,11,1,11,0.00
2014-1-1,18.5,16.0,13.5,15.4,12.5,9.6,89,86,83,30.27,30.19,12,3,14,0.00
2014-1-2,18.0,11.7,0.8,11.5,6.6,-2.7,86,80,71,30.51,30.23,11,1,11,0.00